Regional Weather Roundup
Issued by NWS Wakefield, VA

Home | Current Version | Previous Version | Graphics & Text | Print | Product List | Glossary On
Versions: 1 2 3 4 5 6 7 8 9 10 11 12 13 14 15 16 17 18 19 20 21 22 23 24 25 26 27
000
ASUS41 KAKQ 221016
RWRAKQ

REGIONAL WEATHER ROUNDUP
NATIONAL WEATHER SERVICE WAKEFIELD VA
500 AM EST MON JAN 22 2018

Note: "fair" indicates few or no clouds below 12,000 feet with no
significant weather and/or obstructions to visibility. * = Denotes
station may not report precipitation (e.g., rain,snow,etc.),
thunder or fog.

VAZ042-051-052>054-056-221100-
NORTHERN VIRGINIA

CITY           SKY/WX    TMP DP  RH WIND       PRES   REMARKS
WASH NATIONAL  CLOUDY    51  41  68 SW5       30.12F
DULLES         CLOUDY    51  43  74 S7        30.11S
FORT BELVOIR   MOCLDY    44  38  78 CALM        N/A
QUANTICO       NOT AVBL
FREDERICKSBRG* MOCLDY    54  44  70 SW6       30.12S
STAFFORD*      CLOUDY    55  44  67 S5        30.16S
WARRENTON      CLOUDY    54  40  59 CALM      30.10S
CULPEPER*      CLOUDY    53  41  63 S5        30.12S
MANASSAS*      CLOUDY    45  41  86 CALM      30.12S
LEESBURG*      CLOUDY    43  43 100 CALM      30.11S
WINCHESTER     CLOUDY    52  43  71 SW9       30.10S
FRONT ROYAL*   CLOUDY    54  43  66 MISG      30.08S
LURAY*         CLOUDY    45  43  93 CALM      30.10F
$$

VAZ048-049-060>072-079>083-221100-
CENTRAL AND SOUTH CENTRAL VIRGINIA

CITY           SKY/WX    TMP DP  RH WIND       PRES   REMARKS
RICHMOND       MOCLDY    50  38  63 S5        30.14F
CHESTERFIELD*  NOT AVBL
PETERSBURG*    FAIR      41  36  81 CALM      30.16S
HANOVER        MOCLDY    49  39  68 S3        30.15F
TAPPAHANNOCK*  FAIR      52  39  60 CALM      30.15F
QUINTON*       FAIR      48  38  68 S6        30.15F
CHARLOTTSVILLE CLOUDY    52  42  69 S6        30.11S
GORDONSVILLE*  CLOUDY    44  42  96 SW3       30.11F
ORANGE*        MOCLDY    48  41  76 CALM      30.12S
LOUISA*        MOCLDY    52  42  68 S6        30.17R
BUMPASS*       PTSUNNY   52  41  66 S10       30.13S
FARMVILLE*     CLOUDY    48  45  88 CALM      30.14R
CREWE*         FAIR      44  44 100 CALM      30.15R
FORT PICKETT*  FAIR      44  42  93 SW3       30.15S
CHASE CITY*    FAIR      40  40 100 CALM      30.15S
CLARKSVILLE*   FAIR      37  37 100 S3        30.16R
SOUTH HILL*    FAIR      40  40 100 CALM      30.22S
LAWRENCEVILLE* FAIR      43  39  86 CALM      30.16F
EMPORIA*       FAIR      39  36  87 E5        30.18F
$$

VAZ088>098-221100-
SOUTHEAST VIRGINIA

CITY           SKY/WX    TMP DP  RH WIND       PRES   REMARKS
NORFOLK        CLOUDY    51  39  63 S3        30.19F
VIRGINIA BEACH CLOUDY    51  38  60 CALM      30.19F
NORFOLK NAVAL  MOCLDY    52  36  54 S5        30.20S
WEST POINT*    MOCLDY    49  37  63 SE3       30.18F
SALUDA*        PTSUNNY   51  38  61 S8        30.16F
NEWPORT NEWS   CLOUDY    51  37  58 CALM      30.18F
LANGLEY AFB    CLOUDY    50  38  62 S6        30.18F
FORT EUSTIS    CLOUDY    50  38  62 SE5       30.15F
WILLIAMSBURG*  MOCLDY    50  37  62 CALM      30.18F
HR EXEC AP*    PTSUNNY   50  37  61 SW5       30.19F
FRANKLIN*      MOCLDY    46  38  75 S3        30.19F
US460-WAKEFLD  MOCLDY    49  40  71 CALM      30.17F
$$

VAZ020-022-025-037-045-221100-
WEST CENTRAL AND SOUTHWEST VIRGINIA

CITY           SKY/WX    TMP DP  RH WIND       PRES   REMARKS
STAUNTON*      CLOUDY    42  40  91 CALM      30.13F
WAYNESBORO*    CLOUDY    46  44  93 CALM      30.12S
HOT SPRINGS VA CLOUDY    50  37  61 SW8       30.14S
LYNCHBURG      FAIR      42  40  92 CALM      30.14S
DANVILLE         N/A    N/A N/A N/A MISG      30.16S
SOUTH BOSTON*  FAIR      38  37  96 CALM      30.16S
MARTINSVILLE   FAIR      33  32  96 CALM      30.18S
ROANOKE        CLOUDY    42  38  85 CALM      30.16S
BLACKSBURG     CLOUDY    39  37  94 CALM      30.18S
DUBLIN*        FAIR      40  38  93 CALM      30.16S
MARION*        FAIR      36  34  90 CALM      30.17S
HILLSVILLE*    FAIR      48  40  73 S8        30.14S
RICHLANDS*     FAIR      52  39  62 S6        30.11F
WISE*          MOCLDY    52  43  71 S8        30.11F
ABINGDON*      MOCLDY    42  39  89 CALM      30.12S
$$

MDZ021>025-VAZ099-100-221100-
SOUTHERN MARYLAND AND THE DELMARVA PENINSULA

CITY           SKY/WX    TMP DP  RH WIND       PRES   REMARKS
PATUXENT RIVER NOT AVBL
BAY BRIDGE APT CLOUDY    46  37  71 S7        30.12S
LEONARDTOWN    CLOUDY    52  37  58 SW6       30.14F
DOVER          CLOUDY    51  44  75 S8        30.13R
GEORGETOWN     MOCLDY    52  40  63 SW10      30.15F
EASTON         CLOUDY    50  38  63 S7        30.17S
CAMBRIDGE        N/A     46  39  76 S6        30.15S
SALISBURY      CLOUDY    50  41  71 SW9       30.16S
OCEAN CITY     CLOUDY    50  41  71 SW8       30.16F
WALLOPS ISLAND CLOUDY    56  41  57 SW9       30.17F
ACCOMACK*      CLOUDY    55  39  54 S8        30.18S
$$

NCZ012>017-030>032-221100-
NORTH CENTRAL AND EASTERN NORTH CAROLINA

CITY           SKY/WX    TMP DP  RH WIND       PRES   REMARKS
ROANOKE RAPIDS FAIR      36  36 100 CALM      30.18F
RALEIGH        FAIR      38  37  97 CALM      30.18S
ELIZABETH CITY FAIR      38  38 100 SW3       30.21R
AHOSKIE*       FAIR      36  35  99 CALM      30.19F
EDENTON*       FAIR      39  37  93 CALM      30.21S
CURRITUCK*     MOCLDY    41  37  86 CALM      30.21R
KILL DEVIL HLS FAIR      47  37  69 CALM      30.20R
MANTEO         FAIR      38  35  89 CALM      30.22R
CAPE HATTERAS  NOT AVBL
TARBORO*       NOT AVBL
GOLDSBORO      FAIR      37  35  92 CALM      30.18F
WASHINGTON     FAIR      37  35  94 CALM      30.20F
GREENVILLE     FAIR      37  37 100 CALM      30.21S
NEW BERN       FAIR      35  34  96 CALM      30.21F
WILMINGTON     FAIR      37  36  96 CALM      30.21S
$$

VAZ048-221100-
ELSEWHERE

CITY           SKY/WX    TMP DP  RH WIND       PRES   REMARKS
HARRISBURG PA  CLOUDY    38  36  92 CALM      30.11S FOG
BALTIMORE      CLOUDY    44  39  82 E3        30.11S
ANNAPOLIS      CLOUDY    42  37  82 SE6       30.12S
ANDREWS AFB    MOCLDY    51  39  62 S7        30.10F
PHILADELPHIA   LGT RAIN  42  35  76 SE3       30.14S
HENDERSON NC   FAIR      40  37  87 SW6       30.17R
GREENSBORO     FAIR      42  39  89 SW5       30.16S
ROCKY MOUNT    NOT AVBL
$$

VAZ100-221100-
MARINE

STATION/POSITION TIME  TEMP    WIND        PRES    WAVE   SWELL
                       AIR SEA DIR/SP/G            HT/PER HT/PER
                 (UTC) (F)     (DEG/KT/KT) (MB)    (FT/S) (FT/S)
BRANDYWINE LGT   0942   50     230/ 16/ 16 1020.6F
CAPE MAY NJ      0936   48 34  210/  4/  7 1020.2F
LEWES DE         0942   54 34  240/  7/ 11 1020.4F
15NM E FENWICK I 0950   44 40  200/ 12/ 14 1021.7S   2/ 3   2/ 7
OCEAN-CITY-INLET 0942   45 37  230/  5/  6 1021.7F
WACHAPREAGUE VA  0942   45 41  200/  5/  8 1021.9F
THOMAS POINT MD  1000   46 33  160/ 15/ 15   N/A
GOOSES REEF MD   1000   39 34  160/ 12/ 14 1020.6    1/ 2
COVE POINT MD    0942   38     170/ 12/ 13 1021.2F
SOLOMONS ISLAND  0942   49 35  100/  1/  3 1020.2F
BISHOPS HEAD MD  0942   43 38  190/ 11/ 12 1021.3F
PINEY POINT MD   0942          140/  4/  5   N/A
POTOMAC MD       1000   42 36  230/  4/  6 1020.2    1
CAMBRIDGE MD     0942   47 34              1021.4F
LEWISETTA VA     0942   52 36  220/ 10/ 12 1020.7F
RAPPAHANNOCK LGT 0942          180/ 14/ 14 1022.5F
STINGRAY PT      1000   41 35  200/  8/ 10 1024.2    0
YORK RVR RNG VA  0942   46     190/  8/  8 1022.4F
YORKTOWN VA      0942   53 36  200/ 10/ 16 1021.4F
DOMINION TERM VA 0942   48     150/  2/  3 1022.3F
KIPTOPEKE VA     0942      36  170/  5/  6   N/A
CAPE HENRY VA    0942   53     180/  5/  7   N/A
WILLOUBY STN VA  0942          190/  6/  7 1022.1F
S CRANEY ISL VA  0942   47     170/  5/  6 1022.2F
CAPE HENRY BUOY  1000      40                N/A     1/10
1ST LANDING BUOY 1000   45 36  200/  6/  6 1022.4    0
CAPE CHARLES BUO 0951      40                N/A     1/10
64NM E OF VA BCH 0950   55 58  280/  4/  4 1023.2F   1/11   2/11
DUCK PIER NC     0942   51 40  210/  8/  9 1022.4R
44100 DUCK FRF   0945      38                N/A     1/10
44056 DUCK FRF   1000      40                N/A     1/11
OREGON INLET NC  0942   43 43  200/  2/  2 1022.9F
HATTERAS NC      0942   47 51   30/  1/  2 1022.8F
DIAMOND SHLS NC  1000   61 73  290/  4/  6 1023.3
CAPE LOOKOUT NC  1000             CALM     1023.0F
$$




USA.gov is the U.S. government's official web portal to all federal, state and local government web resources and services.